Theta_e
347 347 348 347 345 345 343 343 340 339 336 335 334 335 336 338 345 347 347 346 345 345 344 342 340 339 339 337 334 334 335 335 334 333 337 339 337 334 335 335 335 337 338 339 337 337 335 331 331 330 331 332 331 331 332 335 337 338 336 333 331 330 332 333 333 332 331 331 332 332 332 333 334 333 332 332 331 332 331 332 331 331 331 331 330
347 347 348 347 345 344 342 343 341 340 336 335 335 335 337 337 343 347 347 346 346 345 343 342 340 339 339 338 335 335 336 336 335 335 338 340 338 334 334 333 334 338 338 337 336 338 336 331 331 332 332 333 332 333 335 337 337 337 335 331 330 328 329 332 332 332 331 331 332 332 333 333 333 332 331 331 331 331 332 332 332 331 331 330 330
348 348 349 347 345 346 342 341 341 341 337 336 335 336 337 337 342 347 348 347 346 344 343 342 341 339 339 338 337 337 336 336 336 336 337 338 339 336 334 334 336 338 338 337 335 337 336 332 330 331 332 333 333 334 336 338 337 336 335 331 329 325 325 330 332 332 331 331 332 332 332 332 332 331 331 331 331 331 331 331 331 331 331 331 330
347 348 349 347 346 347 342 339 341 341 337 335 335 335 336 337 343 346 346 347 346 344 343 342 340 339 339 338 337 338 336 336 337 338 338 337 339 338 335 336 338 338 338 337 335 334 335 333 330 330 331 332 334 335 336 337 337 335 334 331 327 324 323 328 330 330 331 331 331 331 331 331 331 332 331 331 330 331 330 330 330 331 331 330 330
347 347 347 347 347 346 343 341 338 339 338 335 335 335 337 337 341 346 346 346 347 345 343 340 340 339 338 338 338 338 337 336 338 340 340 340 341 339 337 337 339 338 338 337 335 333 333 334 332 331 331 333 335 336 337 337 336 334 332 330 326 325 324 326 328 328 329 331 331 331 331 331 331 331 331 331 330 330 330 330 330 330 330 329 329
347 347 348 348 346 345 344 341 337 338 338 334 334 336 338 338 340 345 347 347 346 346 343 340 340 340 338 338 339 338 337 337 339 341 341 340 341 340 339 338 337 338 338 336 336 336 335 335 333 332 333 335 337 338 338 336 334 333 331 328 327 327 324 323 324 325 328 330 330 331 332 331 330 330 331 331 331 330 331 331 330 330 329 329 329
347 347 348 348 346 345 344 341 339 340 338 335 334 335 337 339 340 344 348 347 345 345 344 343 343 340 339 339 339 338 337 336 338 340 340 339 339 340 340 339 337 338 338 337 337 337 337 336 334 333 334 337 338 338 336 334 333 331 329 327 326 325 323 321 320 324 329 331 331 331 331 331 330 330 331 332 331 331 331 331 330 330 330 330 329
347 347 348 347 347 346 344 342 341 339 337 335 334 334 336 339 340 343 348 348 345 344 344 345 344 341 341 340 339 338 337 337 337 339 340 339 340 340 340 339 338 338 338 338 337 337 337 336 336 332 333 337 337 337 336 333 331 329 328 326 325 323 321 319 318 326 331 331 331 331 331 331 330 330 330 331 331 332 331 330 330 330 331 330 330
347 347 347 347 348 346 344 343 342 337 337 336 334 334 334 337 340 341 344 346 346 345 344 344 343 342 341 340 340 338 338 338 336 338 339 339 339 339 339 338 337 338 337 337 337 336 337 337 336 332 331 337 336 336 336 332 330 329 328 325 323 320 319 316 318 328 332 331 331 331 330 331 331 330 331 332 332 332 331 331 331 330 330 330 329
347 347 347 347 346 346 345 345 344 338 336 336 334 334 333 335 338 339 340 342 344 345 345 343 342 342 341 340 339 339 339 337 336 337 338 338 338 337 337 336 335 336 336 336 336 336 337 336 337 332 329 335 336 335 335 331 330 329 327 325 322 320 317 316 320 329 332 332 331 331 331 331 331 330 330 332 331 332 332 332 331 330 329 329 329
347 346 347 347 346 346 346 346 346 341 337 337 335 334 333 334 335 337 338 339 341 343 344 343 343 342 341 340 338 338 339 338 336 336 336 335 335 334 335 335 333 334 334 335 337 335 336 335 333 330 328 334 335 335 333 331 330 328 326 325 324 322 319 319 325 331 332 332 331 331 330 331 332 330 329 331 331 331 332 331 330 330 330 329 329
345 347 346 346 346 346 345 346 346 344 343 340 339 337 333 332 333 333 334 337 340 341 342 343 342 341 340 340 338 337 337 337 336 336 335 333 331 331 332 333 332 332 332 334 335 334 334 332 329 325 327 333 333 333 332 330 330 327 326 325 324 323 322 324 328 330 331 332 331 331 331 332 332 329 329 331 330 331 331 330 330 330 330 329 329
345 345 346 346 347 345 343 343 342 344 344 341 340 339 335 332 332 331 332 336 339 340 341 342 342 341 340 338 337 336 335 335 335 336 334 331 330 329 329 330 330 331 331 333 334 333 333 331 327 323 327 332 332 330 330 329 328 327 326 325 325 323 322 325 326 328 332 332 331 332 332 333 332 328 330 331 330 331 331 330 330 330 329 329 329
345 344 344 345 346 344 341 339 339 342 343 343 341 340 337 334 331 330 331 335 338 339 340 341 341 340 339 337 336 335 334 334 334 336 333 331 331 330 329 329 330 330 332 333 334 334 334 331 327 324 326 330 330 328 329 328 327 326 325 324 323 321 322 324 323 326 330 332 332 332 332 332 330 328 330 331 330 331 330 330 330 329 329 328 328
344 345 345 345 346 343 339 337 339 342 340 341 342 340 338 335 332 330 330 332 334 336 338 339 338 337 337 335 334 334 333 333 333 333 331 331 330 329 329 328 329 331 333 333 334 335 334 332 327 325 327 329 328 327 328 327 327 325 324 323 321 321 324 324 322 324 327 330 332 332 333 332 328 329 330 330 330 331 330 330 329 329 328 327 328
341 343 345 346 345 342 339 337 338 340 338 338 342 341 337 337 334 330 329 330 330 332 333 335 336 335 335 333 332 331 331 333 333 331 331 331 330 328 328 327 328 330 332 333 334 335 334 332 328 326 328 328 327 326 327 325 326 325 324 323 322 322 324 326 324 323 326 329 332 332 333 331 327 330 330 330 330 329 329 329 329 328 328 327 327
333 336 341 343 344 342 340 338 337 339 339 340 342 340 338 338 336 332 330 329 329 330 331 334 335 334 332 331 331 329 329 331 333 333 331 330 329 328 326 325 326 327 329 329 331 333 334 333 330 328 328 327 325 325 325 326 326 326 325 324 325 323 321 325 326 325 329 330 332 332 332 330 328 330 330 330 330 329 329 329 328 327 327 326 326
326 328 331 336 341 342 342 341 339 338 339 341 341 341 339 339 338 335 331 330 329 330 330 333 333 331 331 330 329 328 329 332 334 333 332 331 329 327 325 322 322 324 325 325 326 330 333 334 331 329 327 325 324 323 323 325 327 328 327 325 326 325 319 323 326 326 327 329 330 332 333 328 326 330 330 330 330 329 329 328 327 327 326 326 325
323 324 325 327 333 338 341 341 341 339 339 340 341 341 340 340 338 336 334 331 330 330 329 332 332 330 331 329 329 330 331 334 335 332 332 333 330 327 324 320 321 324 324 323 324 326 330 333 332 329 327 325 324 324 324 324 326 328 328 326 326 325 320 322 327 326 325 327 329 331 331 324 323 329 329 329 330 329 329 328 327 326 325 325 324
322 322 323 323 326 331 337 338 340 340 339 339 340 340 340 340 337 336 336 332 332 331 328 331 332 331 331 329 331 332 332 334 334 333 332 333 332 329 323 322 324 324 324 322 322 324 326 330 332 328 325 325 326 326 326 325 324 326 327 325 325 325 325 327 328 326 327 327 327 331 326 320 325 329 329 329 329 329 328 327 326 326 326 324 323
322 321 322 322 322 325 331 335 338 339 339 338 339 340 340 340 337 336 337 333 332 331 328 329 332 332 331 331 333 334 335 335 334 334 333 332 331 330 325 324 327 324 323 322 321 325 326 327 330 328 325 327 330 327 325 326 325 326 326 325 325 328 329 330 327 327 329 325 327 331 320 320 329 329 329 329 329 329 328 327 326 326 326 324 323
320 321 320 320 321 322 325 331 335 338 339 339 339 339 339 340 339 338 337 335 333 331 330 329 333 335 333 334 334 334 339 339 336 335 334 333 331 329 326 327 328 324 323 321 320 324 326 327 329 327 327 330 331 327 326 327 326 326 326 325 327 330 330 330 328 327 329 326 330 328 318 324 330 328 329 328 327 328 327 327 326 326 325 324 323
318 319 320 320 320 321 322 326 332 336 338 339 339 338 339 339 339 339 337 337 337 334 335 333 334 338 335 335 337 337 339 340 338 336 336 336 333 331 327 327 329 326 324 322 320 323 327 329 329 328 329 331 330 327 328 329 329 327 327 328 329 329 329 330 329 328 329 329 331 325 319 327 329 328 329 327 328 327 327 327 326 326 325 323 323
317 317 319 320 319 319 321 323 329 333 336 338 340 339 339 339 339 340 338 339 340 337 337 336 335 338 336 337 340 339 337 338 338 336 337 337 334 333 328 327 330 328 326 326 324 324 328 330 330 329 330 329 328 326 327 330 331 330 330 331 331 329 329 330 329 330 330 329 331 324 321 327 329 329 329 328 328 327 327 327 326 327 324 322 323
317 316 318 319 318 318 319 321 325 330 333 336 339 339 339 339 339 340 339 339 339 337 337 338 337 339 338 337 340 340 338 340 339 337 338 337 335 335 332 331 331 329 327 329 329 327 329 330 329 329 329 327 326 326 327 329 332 332 332 331 331 330 330 330 330 331 330 330 330 324 323 327 329 329 328 328 328 327 327 327 326 326 324 321 322
317 316 316 318 318 317 318 320 322 326 330 332 336 338 338 339 339 339 339 339 339 337 337 338 339 340 340 338 338 340 339 340 339 338 339 338 336 336 335 333 331 331 329 330 332 330 330 331 329 328 329 328 327 327 327 329 331 332 332 331 331 331 330 330 330 331 330 331 330 325 324 327 328 329 328 328 328 327 327 327 326 326 324 319 318
316 315 316 318 317 317 317 318 320 323 326 329 332 334 336 336 336 337 337 338 338 338 337 337 338 340 341 339 338 339 340 339 340 339 339 338 336 335 334 333 333 334 332 331 332 332 331 331 331 330 329 329 328 328 327 329 330 331 331 331 331 331 330 330 330 330 330 331 330 327 325 326 328 329 329 328 328 327 327 327 326 326 324 320 319
316 316 316 317 316 316 317 318 319 321 323 325 327 329 331 331 331 334 334 335 337 338 337 336 337 339 340 340 339 339 339 339 340 339 339 338 337 336 335 334 335 334 333 332 332 332 331 332 332 332 330 329 329 328 327 327 329 331 332 332 331 331 330 330 330 331 331 331 332 329 326 327 327 328 329 328 327 328 328 327 327 325 323 322 323
317 317 317 316 316 317 317 318 318 319 320 322 324 325 326 326 326 327 330 332 335 336 336 336 337 338 339 340 340 340 339 339 341 339 338 338 339 337 336 335 335 335 335 333 332 332 332 332 332 332 331 329 329 328 326 326 327 330 331 332 331 331 331 331 330 331 331 331 332 331 328 328 328 327 328 329 327 327 328 328 327 325 323 322 324
318 319 317 316 316 316 316 317 317 318 319 320 321 322 323 323 322 322 324 326 330 334 335 335 337 338 339 339 340 340 339 339 340 339 336 337 339 338 337 336 335 336 336 333 332 332 332 332 332 331 330 329 328 328 328 326 326 328 331 332 332 332 332 331 331 330 331 331 331 333 330 328 329 327 326 328 328 327 328 329 327 325 324 323 323
319 319 317 316 317 315 316 316 317 317 318 319 319 321 321 321 321 320 321 320 321 325 328 331 334 337 338 338 340 339 339 339 339 340 337 337 339 338 338 337 337 336 335 334 333 332 332 332 332 331 329 329 328 328 328 327 325 326 329 332 333 333 332 332 331 331 331 331 330 332 332 328 328 328 325 326 329 328 327 328 327 326 325 323 323
319 318 316 317 317 316 315 316 318 318 318 318 318 319 319 320 320 320 321 318 316 317 320 324 328 333 336 337 339 339 340 340 338 339 338 338 339 339 338 337 337 337 335 334 334 333 332 332 332 332 331 329 328 328 328 327 325 325 327 331 332 333 333 333 332 332 330 330 330 329 331 329 328 328 325 325 328 328 328 328 327 326 325 323 323
317 317 316 317 318 318 316 316 318 318 317 317 317 317 317 318 319 319 319 319 320 319 318 319 319 326 332 335 337 337 339 340 338 338 338 338 337 336 338 338 337 337 336 336 335 334 332 332 332 333 331 329 329 328 328 327 325 324 326 329 332 333 333 333 332 332 330 329 329 327 328 329 328 328 325 324 326 328 328 328 327 327 326 325 324
317 316 318 318 318 318 317 316 316 315 315 314 314 315 315 316 317 318 318 318 321 322 320 318 317 320 325 329 334 336 337 338 339 339 338 338 336 335 335 336 336 336 337 337 336 335 333 332 332 332 331 329 328 328 327 326 325 325 326 327 330 332 332 332 331 331 330 329 329 328 327 327 327 328 327 325 324 326 329 329 328 328 327 326 326
319 318 319 319 318 317 317 318 317 315 314 310 309 311 311 313 316 317 315 315 319 322 322 320 319 320 321 324 328 332 335 335 337 338 338 338 338 336 335 336 336 335 337 336 336 335 334 332 332 332 331 329 328 327 326 326 325 324 325 327 328 330 331 330 331 330 329 329 328 328 328 327 326 326 326 326 324 324 328 329 328 328 327 327 327
321 321 321 319 320 317 316 319 319 318 315 309 306 307 307 308 313 316 314 313 317 320 322 321 321 321 322 323 324 328 332 333 335 336 336 337 338 338 338 338 337 336 337 337 335 335 335 333 332 332 332 331 328 327 327 326 326 324 324 327 328 329 330 329 329 329 329 329 328 327 327 327 327 327 326 326 325 324 327 327 327 328 328 328 327
321 322 322 321 321 318 317 320 320 317 314 309 306 307 307 306 310 313 312 313 316 318 319 320 321 321 321 322 323 324 327 329 331 334 335 335 336 337 338 338 337 337 337 337 335 334 335 334 332 332 332 332 329 327 327 326 324 323 323 326 328 328 329 329 329 329 328 327 327 327 327 327 327 327 327 326 325 325 327 326 325 326 326 327 326
321 322 322 322 322 321 320 320 318 316 312 308 306 308 310 311 313 313 312 315 317 318 318 319 320 321 321 321 320 321 323 324 325 330 333 333 333 333 334 336 337 337 337 336 335 334 334 334 334 333 333 333 332 328 327 325 323 322 324 326 327 328 328 328 329 329 328 326 327 326 325 327 326 327 327 326 325 325 327 327 325 325 325 325 326
321 320 322 322 322 322 321 320 318 315 312 308 308 311 313 313 316 316 316 317 318 318 319 319 319 321 321 320 319 319 321 320 320 322 325 328 330 330 331 332 333 335 336 336 335 334 334 334 334 333 333 333 332 329 327 325 323 321 324 326 326 327 328 328 328 328 327 326 326 325 325 326 327 327 327 327 326 325 326 327 326 326 325 324 324
320 318 320 322 322 321 321 321 319 315 314 315 314 313 312 311 313 314 316 317 317 319 319 320 319 319 320 320 320 319 320 320 320 319 319 321 322 324 327 329 330 331 333 334 335 335 334 334 333 333 333 333 331 330 327 325 323 323 324 326 326 326 327 328 328 328 327 325 324 325 326 326 326 326 326 326 326 325 324 326 327 325 326 326 325
321 318 320 321 322 321 321 323 320 316 316 317 316 314 311 310 312 313 313 314 316 317 319 320 319 319 319 319 320 319 319 319 320 320 321 320 319 319 321 324 327 328 329 331 333 334 335 334 333 333 333 332 331 330 328 325 324 324 326 326 326 326 326 327 328 327 326 324 324 325 326 326 326 326 326 326 325 325 324 324 325 325 325 326 326
322 321 320 321 323 322 321 322 319 317 316 315 317 317 312 308 309 312 312 312 315 316 318 319 318 319 318 318 319 319 319 319 319 320 321 321 321 321 320 320 322 325 327 328 329 332 334 334 334 333 332 332 331 329 328 326 324 325 327 327 327 327 326 326 326 326 325 324 325 326 327 326 326 325 326 326 324 325 325 324 324 325 325 325 326
322 323 322 322 323 322 321 322 318 316 315 312 313 314 309 305 305 309 310 311 313 315 316 318 318 319 318 318 318 318 318 319 319 320 320 320 321 322 323 323 323 323 325 327 329 331 333 334 333 333 332 331 330 330 328 327 325 325 326 326 326 326 326 326 326 325 325 326 326 327 327 326 325 325 326 326 325 325 324 324 324 324 325 324 325
323 324 323 323 323 321 321 322 317 316 314 309 306 308 307 307 308 310 312 312 314 315 317 319 319 317 317 316 316 317 317 317 318 319 320 320 321 322 323 324 324 324 324 325 327 329 332 333 333 332 331 330 329 329 328 327 325 325 325 326 326 326 326 327 327 326 325 326 327 327 328 326 325 325 325 326 326 325 324 324 324 324 325 324 325
323 323 324 324 323 322 322 321 317 315 312 306 302 307 311 313 314 315 315 315 315 316 317 317 317 316 316 316 315 316 316 316 317 318 319 320 320 321 322 323 325 325 325 324 324 326 327 328 332 332 330 330 328 328 328 327 326 325 324 325 326 326 325 326 328 328 326 326 327 328 328 327 325 324 325 326 325 324 324 324 324 324 325 324 324
322 323 325 324 322 323 322 319 316 315 309 304 302 306 313 315 313 314 314 314 314 314 315 315 315 315 315 315 315 315 315 315 316 317 318 319 320 321 321 322 324 325 326 326 326 327 326 327 331 332 330 330 328 327 328 328 327 325 324 325 325 326 327 326 328 328 328 328 326 327 327 326 325 325 326 325 324 323 323 323 324 325 325 324 324
322 325 325 324 322 323 322 317 316 314 308 303 302 306 313 315 313 314 314 314 314 314 314 313 313 314 313 314 314 314 314 315 316 316 317 317 318 319 320 320 322 324 325 327 327 328 329 331 332 332 331 330 328 327 327 328 328 326 323 324 325 327 329 328 328 328 328 328 327 326 326 325 324 325 325 325 324 323 322 323 323 323 323 323 322
324 325 323 322 322 322 321 317 316 314 308 303 303 305 311 313 312 314 314 313 314 313 313 312 312 312 312 313 313 314 314 314 315 315 316 316 317 318 319 319 320 322 323 325 327 327 328 330 331 331 331 330 328 326 327 328 328 327 324 324 326 328 328 328 328 328 327 327 327 326 326 325 324 325 325 326 325 324 323 323 322 322 321 321 321
325 324 322 322 322 322 321 317 315 315 308 303 303 304 306 309 311 313 313 313 313 312 312 312 312 311 312 312 312 313 313 314 314 314 315 316 316 317 317 318 319 320 321 322 325 326 328 328 329 330 330 330 329 327 326 328 328 327 327 326 327 328 327 327 327 328 327 326 326 326 326 326 325 326 326 326 326 325 325 325 323 322 322 322 322
325 323 322 322 322 321 320 318 316 315 309 304 304 304 304 308 312 312 312 313 312 312 312 312 311 311 311 311 311 312 313 313 313 313 314 314 315 316 316 317 318 319 319 321 322 324 326 327 327 328 329 330 329 328 326 326 327 328 328 327 328 328 328 328 328 327 327 326 325 326 327 327 327 327 326 326 327 326 326 326 325 324 324 324 325
323 322 322 322 322 321 320 318 317 315 311 306 305 308 308 310 311 309 310 312 312 312 312 312 311 310 310 310 310 311 312 312 312 312 313 313 314 315 316 316 317 317 318 319 321 322 324 326 327 327 328 329 328 328 327 326 326 327 327 327 327 328 328 328 329 328 327 328 326 326 326 326 327 328 327 326 327 326 326 327 326 325 326 326 326
Wind_Speed
5 3 5 9 9 9 9 9 8 9 9 10 11 12 12 12 12 15 17 17 18 19 20 21 23 25 23 23 22 22 22 21 21 20 19 17 17 17 19 20 18 19 18 16 16 16 16 16 15 15 14 14 15 15 16 18 17 16 17 18 17 20 22 21 20 20 20 20 18 17 18 17 16 16 15 15 16 16 17 16 16 15 15 16 15
3 4 3 7 10 11 11 10 9 8 9 11 12 13 12 12 12 15 17 18 18 19 20 21 24 25 23 23 22 21 21 21 21 20 18 17 17 18 19 18 17 19 19 16 17 17 16 16 15 15 15 15 16 16 17 17 17 17 17 17 17 19 22 21 20 19 19 18 18 17 17 16 15 15 14 14 14 15 15 14 14 14 15 15 15
2 3 3 7 12 13 13 12 10 8 9 11 12 13 12 11 12 16 19 20 20 21 21 22 24 24 23 22 21 20 21 20 20 19 18 17 17 18 19 18 18 19 19 17 17 18 17 16 16 15 16 16 16 16 16 17 18 19 18 16 17 19 21 21 19 19 19 18 17 17 16 15 14 14 13 13 13 14 13 14 15 15 15 15 14
2 3 3 7 12 13 14 14 13 10 9 11 12 14 14 11 11 14 18 21 23 24 23 23 24 24 22 21 21 20 20 20 19 18 18 17 18 19 20 20 19 19 19 18 18 17 17 15 15 15 15 15 15 16 16 17 18 19 18 17 17 19 20 20 18 18 18 17 16 16 15 14 13 12 12 12 12 13 14 15 15 14 14 14 14
3 4 4 5 12 14 14 14 14 13 11 12 13 13 14 12 10 11 16 22 24 25 24 23 24 23 22 22 21 21 20 19 18 18 18 18 19 19 20 20 19 20 19 17 17 17 16 15 14 14 14 15 15 16 17 18 19 18 18 17 18 18 19 18 18 18 18 16 14 13 12 13 12 11 11 11 12 13 14 15 14 14 14 14 14
3 4 4 5 11 16 17 15 14 14 13 13 14 14 14 12 11 11 15 20 23 26 25 23 24 22 22 22 21 22 21 19 17 18 18 18 18 18 19 19 19 19 18 17 16 16 16 15 14 13 13 15 15 17 18 18 19 18 18 18 18 18 17 16 16 18 18 16 13 11 11 11 11 10 10 11 12 13 13 13 13 14 14 14 14
4 4 4 4 10 17 18 16 14 13 13 13 15 15 14 13 12 12 13 17 22 25 26 24 24 23 23 22 21 22 21 20 19 18 18 18 17 17 17 17 18 18 18 17 16 16 16 15 14 13 14 15 16 17 18 19 19 18 18 18 17 16 15 14 15 16 15 13 10 9 10 10 10 10 10 10 11 11 11 12 12 12 13 13 13
6 5 3 5 11 17 18 17 15 14 14 13 14 16 15 14 12 12 14 17 21 23 24 24 24 23 23 22 22 23 22 21 20 19 18 19 18 18 17 16 18 18 17 17 17 17 16 16 15 13 13 15 17 18 18 19 19 18 17 16 15 14 14 14 14 15 13 9 8 9 9 10 10 10 10 9 10 10 10 11 12 12 12 11 11
7 7 5 7 12 17 18 18 17 16 16 14 14 15 15 14 12 13 14 17 21 23 23 24 22 21 22 22 22 22 22 21 20 20 19 19 19 18 18 18 19 18 18 18 17 17 17 17 15 13 13 15 18 19 17 18 18 17 16 14 13 13 13 14 14 13 9 8 8 8 9 9 9 10 10 9 9 10 9 10 10 10 11 11 11
8 8 7 7 14 18 17 18 18 17 17 15 14 14 15 14 13 13 14 15 18 21 23 23 22 21 21 21 20 21 21 21 21 21 19 19 19 18 17 18 18 18 18 18 18 17 17 17 16 13 13 16 18 18 16 17 17 16 15 13 13 13 13 13 13 9 7 8 8 7 8 9 9 9 9 8 9 9 8 8 9 10 11 11 12
9 8 8 8 14 16 14 15 16 18 16 15 14 14 15 15 14 14 13 14 16 20 22 22 22 22 21 19 19 21 21 20 20 20 20 19 18 18 17 17 17 17 17 18 18 17 16 16 16 13 14 17 17 17 16 16 16 15 14 13 13 12 12 13 11 7 7 7 7 7 8 9 8 9 9 8 9 9 9 9 10 10 11 11 11
11 9 8 8 11 14 14 11 14 19 17 15 15 13 14 14 14 14 14 14 16 19 21 21 22 21 21 19 18 19 20 19 19 20 20 19 18 17 16 17 16 16 16 17 17 15 15 15 14 13 14 17 17 17 16 17 16 15 14 12 12 11 13 14 9 6 7 7 8 8 7 7 7 9 9 8 9 9 9 10 10 10 10 11 10
12 10 8 7 7 10 11 7 11 19 19 18 18 16 14 13 14 15 14 14 15 18 19 20 20 20 20 18 17 17 18 18 19 19 19 18 17 16 16 16 16 16 17 17 16 14 14 14 13 12 14 16 17 17 17 17 16 14 13 11 11 11 13 13 7 6 7 7 7 6 5 6 7 8 8 8 10 9 9 10 10 9 10 10 10
12 12 10 8 6 4 3 4 10 19 19 17 18 19 16 13 14 15 15 15 15 17 18 18 18 17 18 17 17 16 16 17 18 19 18 17 17 16 16 15 16 17 17 17 16 14 14 14 13 13 14 16 17 17 17 16 15 13 12 11 10 10 12 10 6 6 6 6 6 5 5 5 7 9 7 7 9 8 8 10 9 9 9 9 9
12 12 12 11 9 6 5 6 12 18 13 10 17 20 17 14 13 14 15 15 15 16 16 17 17 16 17 18 17 17 16 16 17 18 17 17 17 16 16 16 17 16 17 17 16 14 14 14 13 14 15 17 18 16 15 14 13 12 11 11 9 8 9 7 4 6 5 5 4 4 5 4 7 10 7 7 8 8 8 9 9 9 9 9 9
13 12 13 13 10 10 10 10 12 13 4 5 16 19 18 17 14 14 15 14 15 15 15 16 17 18 19 19 18 17 16 16 17 17 17 17 16 16 16 16 17 16 16 16 15 13 13 14 14 15 16 17 17 15 14 13 12 11 10 9 8 6 8 7 4 5 5 5 4 4 4 4 7 8 6 7 7 7 8 7 8 9 9 9 8
14 13 14 14 12 13 12 13 15 13 7 9 16 16 18 18 15 15 14 13 14 15 15 16 18 18 18 18 17 16 16 16 17 16 16 16 15 16 16 17 16 15 14 14 14 13 13 14 15 16 16 16 16 15 13 11 10 10 9 8 6 4 5 6 4 5 4 4 4 3 5 6 8 7 6 6 5 7 7 7 8 8 8 8 8
14 14 14 14 14 15 14 13 14 14 13 14 16 16 17 18 17 16 15 14 14 15 15 16 17 17 17 17 16 15 15 16 17 16 16 16 16 16 17 17 15 13 12 12 14 13 12 13 15 17 17 16 15 13 11 9 9 9 9 7 5 3 4 5 3 4 4 4 3 3 5 6 9 8 6 6 5 6 6 6 7 7 7 7 7
13 14 14 14 14 14 15 13 12 10 11 12 16 18 18 18 18 18 18 16 14 15 15 16 17 17 17 16 16 16 16 17 17 17 18 18 17 17 16 16 14 13 12 11 13 13 13 12 15 18 17 15 13 11 9 8 9 9 9 7 5 3 4 4 3 4 5 4 3 3 4 5 7 8 6 6 5 5 5 5 6 6 7 6 6
10 13 13 13 14 14 13 13 12 9 9 8 11 16 18 20 19 19 20 18 15 15 15 16 16 17 16 16 17 17 17 17 17 17 18 19 18 17 17 15 14 12 12 12 12 13 13 13 16 18 15 13 11 10 8 8 9 10 9 7 5 4 3 3 3 4 4 4 3 3 4 5 8 7 6 6 5 4 4 5 5 6 5 5 6
7 10 12 12 12 13 12 12 12 10 8 7 7 10 15 18 19 19 20 19 17 15 16 16 16 17 17 17 16 16 17 16 16 16 16 18 19 18 17 15 14 13 13 13 13 13 14 15 18 17 13 12 10 8 8 8 9 10 9 8 6 5 4 3 3 3 3 4 4 3 4 7 9 7 7 6 5 4 4 4 5 5 5 5 6
6 7 10 11 11 12 11 11 11 10 8 7 6 7 11 12 15 19 19 18 16 15 16 16 17 17 18 17 16 15 14 14 15 15 15 19 21 19 19 17 15 14 13 13 13 14 16 18 20 17 14 12 8 7 7 8 9 10 9 9 7 6 5 3 4 3 3 4 4 4 5 9 8 7 7 6 5 4 4 4 5 5 4 5 5
6 6 8 9 10 9 10 11 10 10 8 8 7 7 10 9 11 15 17 16 14 14 15 16 17 16 17 16 15 15 13 12 13 13 14 20 22 20 21 19 16 15 14 13 13 14 16 18 19 18 14 11 8 6 6 8 9 11 10 9 8 7 5 4 4 4 4 4 4 4 6 9 8 7 7 6 6 5 4 4 5 4 2 4 4
6 6 6 8 8 7 8 9 9 9 8 8 7 6 7 8 9 11 14 14 13 15 15 15 16 13 14 15 13 13 12 11 11 11 12 18 23 23 22 21 18 17 16 14 14 15 16 16 16 16 13 10 7 6 6 7 9 11 10 10 8 7 6 5 4 4 4 5 5 5 6 9 8 7 7 6 6 5 5 4 4 3 1 3 3
5 5 5 7 7 6 6 7 8 7 6 6 6 5 4 6 7 7 10 11 11 15 14 13 14 12 12 13 12 11 11 10 10 10 9 14 23 24 22 22 20 18 18 16 15 16 15 14 14 13 11 9 7 6 6 6 8 10 10 10 8 7 7 6 5 4 4 5 6 5 6 9 8 7 7 6 6 6 5 4 4 2 0 2 2
4 5 6 6 6 6 5 5 6 6 6 5 4 5 5 4 5 4 5 7 8 11 12 11 11 11 12 12 11 11 11 10 9 9 9 10 18 23 25 23 21 19 18 16 15 16 15 13 13 12 10 9 8 7 7 6 7 9 9 9 9 8 8 7 5 5 4 5 6 6 5 8 7 7 7 7 6 6 5 5 4 3 1 1 2
5 6 6 6 6 6 6 5 4 5 5 4 4 4 5 4 4 6 5 6 7 7 9 11 10 10 11 10 11 11 11 11 10 10 10 10 14 21 24 22 19 18 18 16 15 16 15 13 12 12 10 9 9 8 8 8 8 8 9 9 9 9 8 7 6 5 5 5 6 6 5 8 7 6 7 7 7 6 6 5 4 4 1 0 1
6 7 7 7 6 7 6 5 5 4 4 4 4 5 6 5 2 4 4 6 7 5 6 8 9 10 10 10 11 12 12 12 12 12 12 11 13 18 20 18 17 17 17 16 15 15 14 12 12 11 10 9 9 9 9 9 9 9 10 9 10 10 9 8 6 6 6 5 6 6 6 8 7 6 7 8 7 7 6 6 5 4 2 1 1
7 7 7 7 7 7 7 6 5 4 3 3 3 4 6 6 6 3 1 3 6 7 7 6 6 9 10 11 11 13 14 13 14 16 16 14 14 17 17 17 17 15 16 17 15 14 13 11 11 11 10 9 9 9 9 10 10 10 11 11 10 11 10 9 7 6 6 6 6 7 7 8 9 7 7 8 8 8 7 7 6 4 3 2 3
7 7 7 8 7 6 6 6 6 5 4 4 3 4 5 6 6 6 5 3 1 5 8 7 6 8 9 11 12 13 17 15 15 16 19 17 16 18 18 18 18 16 16 17 14 13 13 12 11 11 10 10 9 9 9 10 11 11 12 11 11 11 11 10 8 7 7 6 6 7 7 8 10 9 8 8 8 9 9 8 7 5 4 3 3
6 6 7 7 7 7 7 6 7 8 6 5 5 5 6 6 6 5 5 5 5 3 3 5 8 8 7 10 12 14 16 16 15 14 17 18 15 17 19 18 17 16 16 16 14 13 13 12 11 11 10 10 10 9 10 11 11 12 12 12 12 12 12 11 10 9 8 7 7 7 6 8 11 11 9 9 8 9 9 9 8 6 6 4 3
6 6 6 7 7 7 7 7 7 8 8 7 7 7 7 6 7 6 5 5 6 6 6 6 6 8 8 9 10 12 14 16 17 16 15 16 16 16 17 18 17 16 16 14 13 13 13 12 11 11 10 9 9 9 10 11 12 12 12 13 13 12 12 12 11 10 9 8 7 7 7 7 10 12 11 10 9 9 10 10 9 7 6 5 5
7 7 7 7 7 6 7 7 7 8 9 8 8 7 7 7 7 7 6 6 5 5 4 6 7 7 9 11 12 11 12 15 17 17 15 15 18 19 17 18 18 15 14 13 13 14 13 12 10 10 10 9 9 9 10 11 12 12 12 13 13 13 13 13 11 10 9 9 8 8 8 7 9 11 11 11 11 12 11 10 10 8 7 6 6
7 7 7 7 6 6 5 6 7 8 9 9 9 8 8 8 7 7 7 6 4 4 4 5 6 7 9 11 14 14 13 13 13 15 16 15 17 22 22 19 17 16 14 13 13 14 13 11 10 11 10 10 10 10 11 11 12 13 13 13 14 14 14 13 12 11 10 10 9 8 8 8 9 10 11 11 12 14 11 9 11 9 7 7 6
6 7 7 7 6 5 4 4 5 6 8 10 11 10 10 9 7 7 9 8 5 3 4 4 4 5 7 8 12 14 15 14 12 12 17 18 16 20 23 18 15 16 14 14 14 14 14 12 11 11 11 11 11 11 12 11 12 13 13 13 14 14 14 14 13 12 11 11 10 10 9 9 9 9 10 11 12 15 14 11 12 10 8 8 7
6 7 6 6 6 4 3 3 3 4 6 10 13 13 13 12 9 8 11 11 7 4 3 3 3 3 4 5 7 11 13 13 14 12 13 16 17 19 20 18 17 16 15 14 15 14 14 14 13 13 12 12 12 12 11 11 11 12 13 13 14 14 15 15 14 13 12 12 11 11 10 10 10 9 10 11 11 14 15 14 14 12 10 10 9
7 7 6 6 6 3 2 2 2 3 5 9 12 12 13 15 12 11 13 11 8 5 4 4 3 3 4 3 4 7 8 9 13 15 11 10 14 17 17 18 19 19 17 14 15 16 14 15 15 14 13 12 12 12 11 11 11 12 13 13 14 14 15 15 15 14 14 13 12 12 11 11 11 10 11 11 11 13 14 15 16 14 13 11 11
8 7 7 6 5 5 3 2 1 3 5 8 11 12 13 13 12 12 14 12 8 6 5 4 3 2 3 3 4 4 5 8 12 15 14 10 9 11 13 17 19 21 22 19 16 18 17 16 15 15 13 12 12 12 11 11 10 12 13 14 14 15 15 16 16 15 15 14 14 13 13 12 12 11 11 12 13 13 13 13 15 15 16 14 12
10 9 8 6 6 6 5 3 0 2 4 8 10 10 11 10 9 10 11 10 8 7 6 5 3 2 3 3 4 4 4 7 10 14 17 16 14 13 13 16 18 18 22 25 23 20 19 18 17 16 15 13 12 11 11 10 10 11 12 13 15 15 15 16 16 16 16 15 14 13 13 13 12 12 12 12 13 14 14 13 13 14 16 17 15
12 12 9 8 7 6 5 5 2 1 3 5 6 7 8 9 10 10 9 9 9 8 6 5 4 3 3 4 4 4 4 5 7 10 13 15 17 18 17 19 19 17 18 24 29 26 22 21 19 17 17 15 13 13 12 11 10 11 11 12 13 14 16 16 17 17 17 16 15 14 14 13 12 13 13 13 14 15 16 15 15 14 14 16 15
12 13 11 9 8 7 6 6 4 2 2 2 2 5 8 9 10 11 11 10 10 8 6 5 5 4 4 5 3 3 4 4 5 6 8 9 12 14 17 20 22 21 20 23 29 29 25 23 21 19 18 16 15 16 15 13 12 11 11 12 13 13 15 16 18 18 18 17 16 15 14 14 13 13 13 14 15 15 16 17 17 16 15 14 13
12 13 12 11 9 8 6 5 4 2 2 2 2 3 6 9 9 8 10 10 9 8 7 6 6 4 5 5 4 4 4 4 4 4 6 7 8 10 12 14 17 21 22 23 26 29 27 24 21 19 20 18 17 18 17 15 14 13 12 10 11 12 15 17 19 19 20 18 17 16 16 16 15 14 14 14 16 16 16 17 17 17 17 15 14
13 11 12 11 10 9 7 6 4 2 2 3 3 3 6 10 11 9 10 9 7 8 8 6 5 5 5 5 6 6 6 5 4 5 5 6 7 8 9 9 11 16 21 23 24 25 28 28 24 22 21 19 18 18 19 19 16 13 12 9 8 9 12 16 19 20 20 19 17 17 17 18 17 15 14 15 16 16 16 16 17 18 18 17 16
13 12 11 12 11 9 8 7 4 2 2 3 5 6 8 10 11 10 10 9 7 7 7 5 5 6 6 6 7 7 7 6 6 6 6 7 7 8 9 10 11 14 18 23 23 22 24 28 30 28 24 20 19 21 21 22 19 14 11 8 8 8 8 11 17 19 20 20 19 18 18 19 18 16 15 16 16 16 15 16 17 18 18 18 17
15 14 12 12 11 10 9 8 5 3 1 2 5 6 6 6 6 6 6 7 7 6 6 6 7 8 8 8 8 8 7 7 7 6 7 8 8 8 9 10 11 12 15 20 24 24 23 25 29 31 30 27 23 22 21 23 23 20 14 9 8 7 6 9 11 13 17 20 19 20 20 20 18 16 16 16 15 14 15 16 17 17 18 18 17
16 14 13 12 11 11 11 9 7 4 3 1 4 5 4 4 5 5 5 6 6 6 7 7 8 8 8 9 9 8 8 8 8 8 7 8 9 9 9 9 10 11 13 16 19 22 23 26 31 33 33 33 29 23 20 22 24 25 21 16 11 7 6 8 8 7 12 16 18 20 21 21 20 17 16 16 14 13 14 16 17 17 17 17 17
15 13 13 13 12 12 12 11 8 6 5 3 2 4 4 4 5 5 4 5 5 5 5 6 7 7 9 9 9 9 8 8 8 8 8 9 9 10 11 10 10 11 12 14 16 18 21 23 28 33 33 33 31 24 20 20 20 23 24 21 18 13 9 8 7 6 7 11 15 19 20 21 20 19 18 16 15 13 13 15 16 17 17 17 17
14 13 13 14 14 13 13 12 10 8 7 4 2 3 3 2 4 3 3 3 3 3 4 4 6 7 8 9 9 9 9 8 8 8 8 9 9 10 10 11 12 12 11 13 15 17 20 19 21 28 31 31 31 30 26 21 18 20 22 21 20 18 15 12 10 9 7 6 10 14 18 19 20 20 19 16 16 15 14 14 14 15 16 16 16
13 13 13 14 14 14 14 14 12 10 8 6 4 2 2 2 2 2 2 2 2 2 2 3 4 6 7 9 10 10 9 9 8 8 8 8 9 10 10 11 12 13 13 13 14 15 18 21 22 25 28 30 31 33 31 26 22 21 21 20 20 20 19 18 15 14 11 9 8 8 13 16 17 19 19 17 17 16 15 14 14 14 15 15 16
12 12 12 12 13 14 14 15 13 11 10 9 6 4 2 2 0 1 2 2 2 2 2 2 3 4 7 8 9 9 9 9 9 9 9 9 9 9 10 11 12 13 14 14 15 15 16 19 24 26 28 30 30 31 32 31 29 26 22 19 17 18 19 18 18 18 15 14 12 8 11 14 13 16 19 19 19 17 16 15 14 14 14 15 15
11 11 11 12 13 14 15 15 14 12 11 10 8 6 4 3 2 0 1 1 1 2 2 2 3 4 6 7 8 9 9 9 10 9 9 9 9 9 9 10 11 12 14 15 16 16 16 18 21 25 28 30 31 31 32 35 33 29 26 23 20 20 20 19 18 19 17 15 12 8 11 14 14 15 17 19 20 18 17 16 15 15 15 15 15
Wind_Direction
39 55 128 143 140 150 151 152 146 133 126 126 130 135 137 136 151 166 169 167 166 161 156 157 158 157 156 154 151 150 148 146 146 144 138 136 141 143 141 139 138 135 128 130 134 130 128 128 124 123 121 124 126 122 120 118 119 120 119 116 111 109 109 107 106 106 106 107 107 105 102 101 100 101 100 99 98 97 97 95 94 94 94 95 92
39 43 92 150 152 158 155 155 151 143 131 129 133 134 138 137 149 166 169 168 165 157 157 160 160 159 157 155 152 151 148 146 146 142 138 138 143 145 145 144 141 133 128 134 135 128 128 127 123 124 123 124 125 122 122 122 122 123 122 119 116 116 114 110 108 107 109 110 108 106 104 101 99 98 97 98 97 96 96 98 98 95 96 96 93
41 68 110 173 170 163 157 156 152 150 136 131 135 136 139 139 152 164 161 163 162 156 159 161 160 160 159 157 153 152 148 146 145 144 145 142 141 143 147 146 139 132 130 135 134 128 127 127 124 124 122 123 123 121 123 123 123 123 123 123 122 122 120 115 110 110 111 111 107 105 102 99 96 97 97 97 95 95 97 100 100 99 102 99 94
51 106 130 169 171 162 157 159 151 150 142 134 136 139 141 143 154 160 159 160 159 157 160 160 160 160 158 157 153 152 150 148 145 145 147 143 141 143 146 144 135 129 129 132 135 131 127 128 126 125 123 123 124 124 126 126 127 127 127 125 124 123 123 120 116 114 115 114 107 103 102 99 94 94 95 94 94 97 99 101 98 100 106 100 93
65 110 121 157 172 162 160 165 153 149 148 138 137 139 140 144 143 148 161 161 157 156 158 159 161 160 157 156 153 151 150 148 142 142 143 139 139 142 144 144 136 130 131 133 133 129 128 130 129 127 125 126 128 129 129 131 132 132 132 127 125 124 124 123 120 116 114 116 110 104 105 102 97 93 92 94 95 96 97 99 97 100 102 97 94
71 117 137 166 179 167 164 168 158 151 150 139 138 141 139 141 135 141 158 159 157 155 156 161 161 158 157 157 153 150 148 146 140 141 143 140 138 137 141 144 143 137 136 136 131 129 130 131 130 129 129 130 132 133 134 135 135 135 134 131 130 129 127 125 123 117 107 106 107 106 108 103 101 97 92 92 94 95 95 96 97 98 93 90 93
82 117 142 173 176 170 165 164 161 155 150 142 140 142 142 141 135 136 145 150 157 156 153 158 159 158 158 157 153 149 147 145 142 142 142 142 139 137 139 141 144 141 138 139 135 134 132 131 131 133 136 135 138 138 136 138 138 138 137 136 135 133 131 124 123 116 99 96 105 109 108 105 104 100 96 93 93 95 96 97 97 95 90 89 93
82 93 116 148 163 169 164 160 162 157 148 146 143 143 144 142 137 132 131 139 152 156 152 153 156 157 157 155 151 148 147 145 142 140 141 143 142 140 140 136 137 138 139 140 138 136 133 132 132 137 140 139 142 139 136 140 141 141 139 138 136 133 131 125 120 108 96 100 110 111 108 108 107 106 104 99 98 98 95 94 95 94 93 94 94
83 80 96 133 160 165 160 161 162 156 148 149 147 141 144 142 138 133 132 135 142 148 150 152 154 156 153 150 149 148 149 145 140 140 142 145 146 145 144 139 137 139 141 140 138 137 135 133 134 140 141 139 140 138 137 141 143 142 138 137 133 129 128 126 117 102 100 114 112 110 111 111 110 112 112 107 103 99 93 93 95 92 92 94 93
79 75 87 125 158 159 159 167 164 156 148 150 150 139 141 144 142 139 138 139 141 145 149 153 154 155 152 150 149 147 148 146 143 144 145 148 149 150 147 144 143 144 145 142 141 142 142 137 136 141 143 142 139 137 139 140 142 141 135 135 132 124 122 118 110 104 116 120 115 118 121 118 115 119 120 115 107 103 108 113 108 96 92 93 91
74 76 82 110 152 158 161 168 162 158 153 152 153 143 141 144 148 146 144 144 146 149 151 153 155 155 153 152 149 147 150 149 148 146 149 152 151 151 150 149 148 148 148 146 147 150 148 141 140 145 149 149 143 139 140 140 141 139 135 134 129 118 111 107 104 114 123 120 119 124 128 120 117 127 127 119 111 105 108 110 103 95 92 92 90
71 76 80 98 142 157 162 176 165 157 158 160 159 152 145 144 149 151 152 152 150 151 152 154 155 156 156 154 151 150 153 153 151 149 153 155 151 152 153 153 153 153 153 151 153 155 151 144 143 148 152 152 146 141 140 141 140 138 135 132 123 109 105 103 106 126 123 125 126 129 133 119 124 134 130 123 115 108 104 102 100 97 93 92 90
67 69 73 89 125 150 158 176 167 161 161 163 164 158 153 148 147 150 156 159 156 154 154 156 157 157 156 155 155 154 155 155 154 154 155 155 152 151 153 154 155 156 156 155 154 154 151 146 143 145 150 148 141 139 141 141 139 137 132 129 123 109 107 107 114 129 127 132 132 139 134 120 130 131 131 126 117 112 108 104 102 98 93 92 88
63 63 66 74 90 128 138 104 142 164 163 164 166 157 156 156 150 150 155 160 160 158 156 157 159 159 157 155 157 157 158 160 158 157 157 155 154 153 154 153 156 157 157 157 154 153 150 148 145 143 148 143 136 138 141 140 137 137 133 133 128 112 107 110 122 128 132 138 137 147 130 129 141 132 133 127 118 115 109 104 102 97 93 92 87
61 62 64 65 69 59 46 84 139 162 159 157 161 155 157 161 154 151 154 159 162 163 161 160 162 162 160 158 160 162 164 166 162 160 160 158 157 155 155 155 157 157 157 158 154 152 151 150 148 146 147 143 137 137 140 140 140 142 141 138 130 115 115 123 136 131 138 145 145 150 129 143 148 138 137 127 123 118 110 107 103 100 95 92 87
62 61 63 63 65 67 74 96 129 153 151 134 150 153 159 160 158 156 155 157 162 166 165 163 163 163 162 161 162 165 166 168 166 165 164 160 159 158 158 159 159 156 156 157 154 153 155 153 151 150 149 144 139 138 140 143 147 149 146 143 130 120 128 130 134 134 142 148 147 147 136 146 140 134 137 130 127 119 113 110 104 102 98 95 90
64 61 61 61 62 72 87 95 103 119 118 124 142 153 161 160 162 161 157 159 164 166 167 166 165 166 165 165 166 168 169 171 171 168 165 161 161 162 162 162 160 156 155 155 154 160 163 154 150 150 148 144 141 141 143 147 154 156 155 150 132 117 129 125 126 137 139 142 144 140 137 146 139 134 138 132 126 120 116 109 106 106 100 97 92
63 61 58 59 60 67 76 87 95 106 114 130 151 159 164 165 165 163 160 165 169 169 169 168 168 170 170 170 170 172 175 175 175 171 167 167 167 166 166 165 161 156 155 155 156 166 170 156 149 149 147 144 142 141 144 154 164 167 165 155 138 113 122 127 129 140 137 140 141 129 141 157 148 143 144 138 131 126 119 110 107 103 99 96 91
61 60 57 57 57 62 66 72 84 99 108 131 161 165 168 170 165 163 166 168 174 174 171 172 172 173 173 175 175 177 181 180 180 177 172 171 169 170 168 166 163 158 156 155 158 167 173 165 155 150 147 145 139 136 140 157 170 175 170 159 150 126 119 135 143 143 138 148 142 125 162 172 145 143 146 141 137 129 119 113 104 95 95 92 89
59 59 56 55 55 58 62 62 66 79 91 110 155 165 172 172 166 166 171 171 176 180 175 176 175 174 176 177 179 180 181 184 184 180 178 174 170 171 171 170 167 162 160 156 157 164 171 171 161 153 151 149 140 135 138 155 171 176 173 165 157 146 148 157 153 141 137 154 139 140 186 155 131 142 146 139 137 130 122 113 104 97 93 84 84
54 56 54 53 53 54 58 61 62 66 74 85 127 160 172 172 170 172 177 174 175 183 180 180 179 177 181 182 183 182 178 181 185 181 183 180 174 175 175 178 174 169 168 162 160 163 166 166 163 160 158 156 148 144 144 155 174 179 176 170 162 169 183 167 158 149 140 146 135 168 182 135 132 147 143 141 142 137 127 114 109 103 90 80 84
39 44 50 49 50 53 53 57 60 62 66 75 100 149 163 164 172 176 179 177 176 184 183 184 185 182 185 187 184 184 178 174 179 182 187 182 178 180 178 182 183 179 177 171 169 167 166 164 163 167 167 168 162 154 155 161 179 186 179 172 174 189 189 173 174 159 152 143 141 185 156 128 141 152 148 150 150 147 138 122 118 116 106 93 87
23 23 41 44 46 50 52 55 57 59 63 72 90 136 155 157 170 175 175 175 177 186 186 188 193 189 186 189 186 187 182 174 179 180 184 180 179 184 183 185 188 186 185 181 179 173 171 169 169 172 176 182 177 165 167 167 179 188 187 184 190 198 189 187 187 167 167 148 160 193 142 132 149 156 157 157 154 154 148 136 127 129 121 97 83
18 16 33 42 45 46 51 55 56 58 59 68 84 121 157 162 162 168 171 173 180 186 190 193 198 197 190 193 193 191 184 182 183 178 184 181 181 188 190 188 187 188 189 183 184 183 180 180 181 182 181 186 185 177 177 171 176 183 189 194 197 198 189 196 195 179 173 152 184 204 142 137 152 161 167 163 160 160 156 148 139 145 113 102 95
19 17 32 40 42 42 51 52 55 60 58 65 74 97 146 161 154 162 171 177 185 188 193 197 200 205 203 201 200 195 190 189 181 177 185 177 179 187 188 187 186 189 188 180 183 187 184 184 188 189 184 186 186 187 191 186 184 184 189 198 201 198 194 198 198 190 174 162 201 217 156 144 152 168 173 170 171 168 167 158 152 160 148 148 135
30 33 37 40 41 39 46 51 55 60 59 64 65 79 109 130 145 155 168 180 187 194 198 199 201 209 211 207 205 202 201 199 183 182 193 180 180 187 187 185 186 188 187 184 184 185 186 183 185 188 187 189 192 195 202 205 203 196 195 201 203 201 199 201 198 198 185 180 212 220 171 152 159 179 178 178 185 180 177 172 172 169 183 217 123
53 53 51 49 48 43 43 48 53 58 59 63 62 70 84 93 142 157 168 185 188 206 209 205 205 210 215 211 208 208 208 205 193 188 194 190 181 184 188 185 184 187 188 191 189 187 191 189 186 189 191 194 197 203 210 215 218 214 209 205 206 203 202 204 199 202 198 191 218 229 191 167 170 189 186 187 194 191 189 187 186 180 190 215 101
74 69 64 60 54 49 46 49 49 52 55 53 57 65 73 67 81 163 181 190 185 204 221 220 219 215 219 216 213 213 214 210 202 194 189 192 182 179 187 185 186 191 191 196 195 192 196 195 191 190 195 200 204 211 218 220 221 225 223 215 210 207 206 208 203 206 206 196 214 227 206 187 186 194 194 196 201 201 199 199 196 195 209 179 164
89 81 75 67 60 57 53 50 49 45 46 42 41 52 65 62 37 32 98 184 189 197 205 225 240 231 226 221 220 218 218 214 208 198 187 190 187 181 188 190 192 196 198 201 200 198 199 198 196 195 199 205 209 214 219 224 222 226 230 222 213 210 209 210 210 209 211 207 211 219 218 205 199 200 200 201 205 207 206 207 207 210 219 186 180
103 93 83 74 67 63 58 53 51 43 41 39 32 29 39 50 37 25 30 34 232 209 204 214 224 228 230 225 226 226 221 218 216 204 191 192 191 186 189 194 197 199 203 204 201 199 200 199 200 202 206 210 215 216 219 226 224 223 228 225 215 211 210 210 213 213 212 213 211 220 233 220 208 209 210 207 207 207 210 211 212 214 214 196 185
118 102 86 82 75 68 63 57 51 45 41 41 38 26 24 31 27 25 29 16 350 325 271 247 222 214 220 222 228 233 229 226 224 214 200 196 194 193 194 197 199 201 204 205 202 200 200 201 204 209 214 217 221 220 221 227 227 222 223 225 218 212 212 212 213 215 214 215 213 218 236 226 215 216 217 217 211 205 209 214 219 220 217 212 199
123 102 90 91 85 75 66 58 49 43 41 40 40 31 23 18 16 22 21 5 353 344 332 309 266 232 221 220 226 231 233 233 227 219 213 207 202 200 202 204 203 202 205 205 203 204 205 204 206 211 214 217 222 223 224 228 229 223 220 221 217 211 212 212 214 216 215 217 218 217 224 220 217 222 223 223 218 209 208 214 223 221 217 213 204
119 106 106 105 97 86 71 59 50 42 40 36 34 30 23 14 9 12 10 8 2 348 330 318 305 272 244 232 230 229 230 234 230 221 217 217 212 207 208 210 207 205 206 206 204 208 210 208 206 207 205 209 217 221 225 229 229 225 221 218 215 213 211 210 213 215 215 219 221 220 224 223 222 225 225 223 217 215 213 213 217 216 220 214 202
123 122 128 121 109 98 83 65 53 44 39 31 29 23 16 13 8 3 1 6 6 353 338 326 316 289 269 251 239 234 230 228 233 231 220 217 218 216 215 215 210 206 205 205 206 209 212 210 208 205 201 207 218 221 224 229 227 222 220 217 215 215 213 212 213 213 215 219 221 222 226 227 226 224 225 227 220 217 216 216 217 211 217 217 205
141 139 141 135 125 111 100 81 60 45 36 29 29 25 16 13 6 358 355 359 1 355 353 348 331 293 284 276 256 246 238 227 227 238 230 220 217 219 218 217 213 210 209 208 207 209 212 211 212 211 208 214 222 223 224 227 224 217 215 215 215 214 213 215 216 215 217 219 221 224 228 229 229 226 224 227 225 219 215 215 222 219 212 217 216
169 161 156 149 144 132 112 95 73 42 28 24 27 26 21 17 11 1 356 359 0 356 356 352 344 317 298 291 277 260 249 237 227 228 235 229 223 221 219 216 213 214 215 212 209 208 209 213 217 218 217 220 223 224 222 222 219 215 212 212 213 213 213 215 217 219 219 220 223 224 228 230 229 230 227 224 221 220 221 218 223 228 220 219 214
188 181 172 164 163 162 142 112 79 26 20 19 21 19 18 18 15 8 3 4 3 360 353 345 341 333 324 311 296 272 254 248 235 223 223 232 230 228 227 223 218 217 217 212 213 215 214 217 217 218 222 225 227 227 221 218 216 212 209 209 212 214 216 217 217 220 222 223 225 225 227 230 227 228 228 227 222 219 229 230 227 232 234 232 219
199 198 189 180 173 166 156 141 29 6 17 22 21 15 14 16 13 8 8 8 6 2 354 348 340 332 338 322 310 291 263 257 250 235 227 229 229 229 230 226 222 223 223 219 221 224 223 224 220 217 218 227 234 231 227 221 213 208 206 207 211 215 218 220 219 221 224 223 225 226 227 228 227 228 225 227 226 219 226 230 226 231 236 240 233
210 212 203 193 180 169 164 162 124 354 11 27 25 16 13 14 10 7 8 6 2 0 358 1 353 341 351 332 313 299 279 267 263 252 243 241 239 233 234 230 226 228 228 225 225 222 221 223 224 221 215 224 238 237 234 226 212 207 207 205 209 216 220 223 223 223 225 225 226 228 228 228 224 225 224 225 226 222 223 222 219 225 232 240 241
217 221 214 203 191 182 172 165 150 15 9 27 23 15 15 12 10 8 6 2 359 357 0 10 8 352 346 340 326 304 292 275 265 261 254 252 251 248 247 243 238 236 233 230 225 220 219 219 219 220 215 220 233 236 232 227 217 207 207 209 209 217 221 223 225 226 227 227 229 229 226 226 222 221 222 224 225 223 223 223 221 223 227 237 240
216 222 219 211 201 191 178 165 149 84 55 52 28 29 25 14 8 6 2 359 355 354 356 1 4 359 347 345 337 318 306 286 268 258 253 254 258 256 251 247 243 239 238 238 231 224 221 218 214 216 217 215 218 227 225 221 217 202 200 210 211 218 222 223 227 229 231 231 231 228 223 224 223 221 221 222 225 223 223 223 224 224 222 226 230
213 217 217 215 207 200 193 172 153 121 89 65 58 55 32 18 11 4 357 355 353 350 346 343 348 352 351 353 347 332 321 303 283 265 257 250 250 254 253 250 244 238 236 239 238 231 222 214 209 210 216 213 212 223 223 216 216 203 195 202 207 218 223 226 230 231 232 232 230 226 224 225 225 223 222 223 224 223 224 223 224 223 221 222 222
210 209 211 212 208 204 197 175 157 136 87 49 58 57 27 19 14 8 4 0 355 346 342 338 345 351 348 349 344 332 325 312 293 280 270 257 248 247 248 247 241 236 233 233 238 236 225 213 208 209 213 212 214 226 222 216 221 209 197 203 203 210 218 222 228 230 229 228 227 226 226 226 226 225 222 223 222 221 223 223 223 222 220 223 222
206 205 204 205 207 207 192 170 162 146 91 32 41 36 22 18 11 7 9 7 1 350 347 349 346 345 339 332 330 325 321 311 296 285 271 262 259 251 246 241 236 236 234 231 231 233 229 218 212 212 210 206 212 226 222 216 225 220 205 210 204 206 219 214 217 223 223 222 223 224 227 228 227 227 222 222 220 219 223 222 222 220 218 220 220
206 208 204 202 205 203 188 174 171 162 137 30 40 38 28 23 11 5 10 7 5 1 357 354 345 338 331 325 324 321 315 308 300 293 280 269 265 259 253 245 238 235 233 231 229 229 234 230 221 215 213 209 208 220 223 215 222 229 227 225 209 209 231 211 205 215 216 219 223 221 226 230 228 227 224 222 219 219 222 220 220 218 215 217 216
209 207 201 199 201 195 188 187 182 173 182 144 53 48 38 30 22 17 13 6 5 7 359 347 340 333 326 322 321 320 312 306 302 296 289 281 274 269 264 256 248 242 236 235 233 231 234 234 227 219 216 214 207 210 223 217 218 229 232 235 239 244 247 219 208 215 210 216 226 225 225 229 229 227 224 222 218 217 218 215 215 214 213 214 213
205 199 195 198 197 189 189 194 188 180 195 193 85 61 49 28 26 28 23 16 8 3 355 338 332 326 321 321 319 319 314 306 302 295 290 287 284 279 271 265 259 253 245 240 238 235 234 232 224 217 215 214 208 206 221 221 217 226 231 234 243 252 257 239 227 227 213 213 223 227 229 228 227 227 225 221 217 214 212 210 210 210 211 211 209
196 191 197 202 197 190 191 195 189 185 197 202 160 88 74 28 23 35 32 23 9 357 349 334 330 323 317 318 315 313 311 306 302 297 294 289 286 283 277 272 265 261 256 248 244 240 239 238 227 219 216 214 210 207 216 220 212 220 231 234 238 244 249 250 244 241 242 229 218 224 231 230 225 226 225 222 218 214 210 209 211 208 207 206 202
191 194 200 202 197 191 191 193 190 189 198 205 199 148 92 42 17 37 35 16 359 354 349 331 328 323 316 314 312 310 307 304 301 299 300 295 289 284 280 276 268 264 262 256 252 247 244 242 235 228 222 217 214 210 212 217 212 215 225 229 233 239 245 247 245 245 250 249 236 221 218 219 221 222 220 219 218 214 211 212 214 208 201 197 194
193 199 198 199 197 193 191 192 191 191 198 206 204 188 135 88 92 44 47 21 345 339 343 336 325 320 315 312 311 309 307 304 300 297 298 298 294 287 280 276 271 267 265 262 257 253 253 248 240 236 231 225 221 216 214 217 217 216 219 222 227 233 239 241 238 240 245 246 250 237 205 202 210 215 213 214 214 212 211 210 211 209 198 190 189
200 202 198 198 197 194 194 194 194 192 196 203 201 190 176 158 179 261 60 50 334 322 322 325 315 312 309 307 308 306 304 302 299 296 295 296 295 289 281 276 272 267 264 264 261 257 257 254 246 241 238 233 229 223 218 218 219 218 219 221 223 229 237 241 236 236 238 240 245 243 220 210 210 212 207 208 212 211 211 208 207 208 198 188 187